SCP
0 0 0 0 0 0 0 0 0 0 0 0 0 0 0 0 0 0 0 0 0 0 0 0 0 0 0 0 0 0 0 0 0 0 0 0 0 0 0 0 0 0 0
0 0 0 0 0 0 0 0 0 0 0 0 0 0 0 0 0 0 0 0 0 0 0 0 0 0 0 0 0 0 0 0 0 0 0 0 0 0 0 0 0 0 0
0 0 0 0 0 0 0 0 0 0 0 0 0 0 0 0 0 0 0 0 0 0 0 0 0 0 0 0 0 0 0 0 0 0 0 0 0 0 0 0 0 0 0
0 0 0 0 0 0 0 0 0 0 0 0 0 0 0 0 0 0 0 0 0 0 0 0 0 0 0 0 0 0 0 0 0 0 0 0 0 0 0 0 0 0 0
0 0 0 0 0 0 0 0 0 0 0 0 0 0 0 0 0 0 0 0 0 0 0 0 0 0 0 0 0 0 0 0 0 0 0 0 0 0 0 0 0 0 0
0 0 0 0 0 0 0 0 0 0 0 0 0 0 0 0 0 0 0 0 0 0 0 0 0 0 0 0 0 0 0 0 0 0 0 0 0 0 0 0 0 0 0
0 0 0 0 0 0 0 0 0 0 0 0 0 0 0 0 0 0 0 0 0 0 0 0 0 0 0 0 0 0 0 0 0 0 0 0 0 0 0 0 0 0 0
0 0 0 0 0 0 0 0 0 0 0 0 0 0 0 0 0 0 0 0 0 0 0 0 0 0 0 0 0 0 0 0 0 0 0 0 0 0 0 0 0 0 0
0 0 0 0 0 0 0 0 0 0 0 0 0 0 0 0 0 0 0 0 0 0 0 0 0 0 0 0 0 0 0 0 0 0 0 0 0 0 1 0 0 0 0
0 0 0 0 0 0 0 0 0 0 0 0 0 0 0 0 0 0 0 0 0 0 0 0 0 0 0 0 0 0 0 0 0 0 0 0 0 0 1 1 0 0 0
0 0 0 0 0 0 0 0 0 0 0 0 0 0 0 0 0 0 0 0 0 0 0 0 0 0 0 0 0 0 0 0 0 0 0 0 0 0 1 1 1 0 0
0 0 0 0 0 0 0 0 0 0 0 0 0 0 0 0 0 0 0 0 0 0 0 0 0 0 0 0 0 0 0 0 0 0 0 0 0 0 1 1 1 1 0
0 0 0 0 0 0 0 0 0 0 0 0 0 0 0 0 0 0 0 0 0 0 0 0 0 0 0 0 0 0 0 0 0 0 0 0 0 0 1 1 1 0 0
0 0 0 0 0 0 0 0 0 0 0 0 0 0 0 0 0 0 0 0 0 0 0 0 0 0 0 0 0 0 0 0 0 0 0 0 0 0 1 1 1 0 0
0 0 0 0 0 1 0 0 0 0 0 0 0 0 0 0 0 0 0 0 0 0 0 0 0 0 0 0 0 0 0 0 0 0 0 0 1 1 1 1 1 0 0
0 0 0 1 1 1 1 1 0 0 0 0 0 0 0 0 0 0 0 0 0 0 0 0 0 0 0 0 0 0 0 0 0 0 0 1 1 1 1 1 1 1 1
0 0 0 1 1 1 1 1 0 0 0 0 0 0 1 1 1 0 0 0 0 0 0 0 0 0 0 0 0 0 0 0 0 0 1 1 1 1 1 1 1 1 1
1 1 1 1 1 1 1 0 0 0 0 0 0 1 1 1 1 1 1 0 0 0 0 0 0 0 0 0 0 0 0 1 1 1 1 1 1 1 1 1 1 1 1
1 1 1 1 0 1 1 0 0 0 0 0 0 1 1 1 1 1 1 0 0 0 0 0 0 0 0 0 0 0 0 1 1 1 1 1 1 1 1 1 1 0 0
1 1 1 1 1 1 1 0 0 0 0 0 0 1 1 1 1 1 1 1 0 0 0 0 0 0 0 0 0 0 0 1 1 1 1 1 1 1 1 1 0 0 0
1 1 1 1 1 1 1 1 1 1 0 1 1 1 1 1 0 0 0 1 1 0 0 0 0 0 0 0 0 0 0 0 1 1 1 1 1 1 1 1 0 0 0
1 1 1 1 1 1 1 1 1 1 1 1 1 1 1 1 1 0 0 1 1 1 1 1 1 0 0 0 0 0 0 0 0 0 1 1 0 0 0 0 0 0 0
1 1 1 1 1 1 1 1 1 1 1 1 1 1 1 1 1 1 1 1 1 1 1 1 1 1 0 0 0 0 0 0 0 0 0 0 0 0 0 0 0 0 0
1 1 1 1 1 1 1 1 1 1 1 1 1 1 1 1 1 1 1 1 1 1 1 0 0 1 1 0 0 1 1 0 0 0 0 0 0 0 0 0 0 0 0
1 1 1 2 2 2 1 1 1 1 1 1 1 1 1 1 1 1 1 1 1 1 1 1 1 1 1 1 1 1 1 0 0 0 0 0 0 0 0 0 0 0 1
1 1 1 2 2 2 1 1 1 1 1 1 1 1 1 1 1 1 1 1 1 1 1 1 1 1 1 1 1 1 1 0 0 0 0 0 0 0 0 0 0 0 1
Wind_Speed
10 12 14 13 13 12 12 12 12 11 10 10 9 8 8 8 8 8 8 8 8 8 7 7 7 6 5 4 4 3 4 5 6 6 6 6 5 6 5 4 4 4 7
14 14 15 14 13 12 12 11 11 11 10 9 9 8 8 8 8 8 8 7 7 7 6 7 6 5 4 4 3 3 4 5 6 6 6 6 6 6 5 4 3 4 6
16 15 14 14 13 12 12 11 11 11 10 9 8 8 8 7 7 7 7 6 6 6 6 6 6 5 4 4 3 3 4 4 5 5 6 4 6 7 6 6 6 6 6
15 14 13 14 13 13 12 11 11 10 9 9 8 7 7 7 6 6 6 6 6 6 6 6 5 5 4 4 4 3 4 4 4 5 4 4 4 7 8 7 6 5 6
13 14 15 15 14 14 12 11 11 10 9 8 8 7 7 6 6 6 6 6 6 6 5 5 5 5 4 4 4 4 5 5 5 5 3 2 3 8 8 7 6 5 5
14 14 14 15 14 13 12 11 10 9 8 7 7 7 6 6 6 6 6 6 5 5 5 5 5 4 4 4 4 5 5 5 5 5 3 3 4 8 9 8 7 6 5
13 13 14 15 15 14 12 11 9 9 8 7 7 6 6 5 5 5 5 5 5 5 5 5 5 4 4 5 5 5 5 6 5 4 2 2 5 9 9 8 7 6 6
12 13 13 15 15 14 12 11 9 8 7 7 7 6 6 6 6 6 5 5 6 5 5 5 5 5 5 5 5 6 6 7 5 4 3 3 6 9 9 8 8 7 7
11 12 11 12 12 13 12 11 10 9 8 7 6 6 6 6 6 6 6 6 6 6 6 6 6 5 6 6 6 6 7 7 5 3 2 3 6 8 8 8 8 8 8
8 9 10 11 11 10 10 11 11 10 8 7 7 7 7 7 7 7 6 6 6 6 6 7 7 7 7 7 7 7 8 7 5 3 1 3 7 8 7 7 7 8 8
7 7 7 8 9 10 9 10 10 9 9 7 6 7 7 6 6 6 7 8 8 8 8 8 8 8 8 8 9 9 8 4 4 2 1 5 8 8 7 7 8 8 8
7 6 6 6 6 7 6 7 6 6 6 5 4 4 4 4 3 4 7 9 9 9 10 10 10 10 8 6 8 10 5 5 4 3 3 8 8 9 8 7 8 8 8
7 6 5 5 5 4 3 4 3 2 3 4 4 3 2 2 2 3 3 5 6 8 7 7 8 6 6 4 4 4 5 4 2 2 4 9 9 9 9 9 8 8 8
6 6 6 6 4 3 3 2 2 2 2 2 3 2 2 1 2 2 2 3 3 3 3 3 3 4 5 5 4 4 4 2 1 2 4 8 9 9 9 9 9 8 8
6 6 6 6 4 3 2 0 2 2 2 2 2 2 2 2 2 2 1 1 2 2 3 3 3 3 3 3 3 4 3 3 3 2 3 8 9 9 9 9 9 9 8
6 5 6 6 5 4 2 1 0 1 2 1 2 3 3 2 2 2 2 2 2 1 1 2 2 2 2 2 3 3 3 3 2 3 3 6 9 9 9 9 10 9 8
6 5 5 6 6 4 2 1 1 1 2 1 1 2 1 2 1 1 2 2 2 2 2 2 2 2 2 3 3 2 2 2 2 3 3 3 5 8 10 10 9 9 8
6 6 4 4 6 5 2 1 1 1 1 1 1 2 1 1 1 1 1 1 1 2 2 2 2 1 2 2 2 2 2 2 3 4 3 3 4 5 7 10 10 9 9
6 6 5 3 4 4 3 2 2 1 1 1 1 2 2 2 1 2 1 1 1 1 1 2 2 1 2 2 2 3 3 3 3 3 3 4 3 4 5 8 11 11 10
7 6 5 4 3 3 3 2 2 1 1 1 1 1 2 2 2 2 2 2 2 1 1 1 1 1 2 2 3 2 2 3 3 3 4 4 4 5 5 5 6 7 10
7 6 5 5 4 2 2 2 2 2 1 1 2 2 2 2 2 2 2 1 2 1 2 2 1 2 2 2 1 1 2 3 3 4 3 3 4 4 4 6 5 4 5
8 7 6 5 5 4 3 2 2 2 2 2 1 2 2 1 2 2 2 1 2 1 2 2 1 2 2 1 1 1 1 1 2 3 3 3 3 3 3 5 5 5 4
9 8 6 5 5 4 3 2 2 1 1 1 2 2 2 2 1 1 1 2 1 1 1 2 2 3 2 2 1 1 1 1 1 1 2 3 2 2 2 3 5 5 5
9 9 7 6 5 4 3 3 3 2 2 1 1 2 3 3 2 1 1 2 1 1 1 3 2 2 2 2 2 1 1 1 1 1 1 1 2 2 2 3 3 4 4
9 9 8 6 5 5 4 3 3 2 2 1 1 2 2 2 2 1 1 1 1 1 1 1 1 1 1 2 2 1 1 2 2 2 1 1 1 1 2 2 2 3 4
8 7 8 7 6 5 5 4 3 2 1 1 1 1 2 2 2 2 2 1 0 1 1 1 1 2 1 2 2 1 1 1 1 2 2 2 2 2 2 2 2 2 3
Wind_Direction
113 119 121 120 120 121 124 127 128 126 125 126 126 122 120 120 118 115 112 114 120 123 124 127 131 132 132 128 110 105 115 126 130 131 132 131 133 137 140 146 164 135 130
117 121 121 119 120 121 125 128 129 129 127 128 129 129 127 124 125 125 122 123 127 132 135 132 134 134 137 136 128 125 128 132 140 147 150 154 156 157 159 158 146 130 140
114 122 123 121 121 124 126 127 130 130 130 131 131 132 133 133 134 134 132 134 136 139 139 138 139 139 145 147 145 150 153 151 160 172 186 183 167 167 169 159 146 150 154
118 125 125 126 126 127 128 129 132 132 132 133 134 134 139 142 142 142 140 141 145 146 146 145 151 154 155 159 169 182 185 185 192 205 208 203 176 160 168 165 156 162 169
118 121 125 130 128 129 129 130 131 133 134 137 138 140 143 148 149 152 151 147 149 149 151 155 159 160 161 172 186 199 208 208 219 227 229 190 146 154 163 164 164 168 174
119 121 129 133 133 133 132 132 133 135 138 143 144 145 147 151 154 157 158 160 157 153 157 159 164 169 174 182 196 208 220 226 234 234 223 173 141 156 166 172 175 178 178
122 127 134 136 138 139 138 138 137 139 143 146 147 154 158 159 159 164 165 168 168 164 164 169 176 182 187 197 209 221 232 242 244 245 225 154 147 161 171 176 180 183 186
125 129 136 140 142 143 145 145 145 145 146 148 155 164 168 170 171 173 175 176 178 179 184 185 187 195 203 211 218 228 241 249 244 241 218 148 156 166 173 176 181 187 193
122 130 142 148 148 147 149 152 153 153 152 155 163 168 174 179 183 183 182 185 187 189 193 197 201 208 215 222 229 237 247 252 263 260 211 146 152 161 173 180 185 192 197
125 132 142 149 154 155 157 160 160 162 163 167 175 180 183 188 194 195 193 193 195 195 201 209 213 217 222 230 236 243 252 257 246 243 188 157 160 164 174 180 186 192 196
131 134 143 149 155 160 160 157 166 171 175 177 187 196 198 197 194 197 197 194 200 204 208 212 217 219 224 231 236 240 248 241 237 222 164 162 165 167 174 182 185 190 193
140 144 147 149 148 155 149 151 168 173 170 183 180 195 200 202 190 187 177 192 203 209 213 217 223 223 226 229 229 229 232 228 227 197 176 169 170 172 176 183 187 192 197
137 137 137 128 128 133 130 151 161 166 165 175 176 200 192 179 179 179 179 186 202 212 218 217 221 225 223 222 224 214 219 222 207 180 168 173 176 179 182 188 191 196 201
134 139 134 120 124 128 128 149 162 159 158 158 162 190 175 192 196 185 188 185 189 201 205 215 210 214 221 226 227 229 229 217 198 159 158 170 176 182 187 193 199 201 203
137 141 129 127 123 110 98 175 154 151 168 156 154 178 180 190 207 180 195 197 204 199 196 205 213 223 220 220 230 228 228 208 201 183 155 171 178 188 194 198 203 207 206
143 142 127 132 126 121 134 195 199 168 152 144 150 162 186 198 190 185 202 216 221 210 207 216 215 216 222 217 223 230 230 212 197 180 168 177 187 191 198 203 206 206 203
143 127 126 136 127 125 147 198 201 192 132 148 142 141 182 222 196 208 210 208 212 203 210 217 224 216 218 212 212 223 222 210 189 184 181 181 188 198 200 203 204 201 200
137 128 131 142 139 144 155 203 235 229 140 156 134 130 169 229 200 229 234 220 210 216 202 201 211 216 234 222 198 215 208 201 200 191 188 192 191 192 197 200 198 198 201
134 132 138 140 147 153 166 186 214 207 168 157 139 146 170 199 196 220 239 226 237 241 220 226 178 212 226 233 219 209 210 196 190 200 192 194 197 191 186 190 194 198 203
139 140 145 151 142 153 162 179 215 220 186 176 156 167 158 194 217 230 223 203 229 241 230 240 221 228 238 229 250 233 218 205 191 196 203 193 196 199 188 181 186 200 204
147 149 156 162 155 163 174 191 207 198 200 178 177 162 161 205 228 229 270 192 218 231 222 237 233 239 248 233 239 261 240 221 199 192 199 195 195 201 187 176 181 180 190
156 159 166 167 163 176 181 198 207 205 204 176 166 146 162 194 233 230 250 252 216 226 225 241 228 248 248 225 219 253 269 247 242 213 190 198 195 190 190 187 170 178 186
166 167 168 166 166 180 183 193 208 192 228 197 174 151 166 182 202 266 220 264 248 233 214 223 221 226 242 233 200 199 215 237 232 211 208 198 180 174 196 188 181 179 187
170 166 161 164 167 175 182 200 213 198 204 209 181 166 171 174 189 216 228 240 262 257 231 230 219 241 244 256 234 228 233 205 228 254 236 183 182 196 212 215 190 179 181
175 169 163 161 168 172 187 201 214 221 214 208 167 167 164 165 185 202 205 221 235 248 254 248 203 231 243 254 261 249 255 241 229 215 241 226 219 209 216 219 210 188 179
180 172 160 160 172 177 183 192 197 217 217 267 251 187 176 177 184 190 185 204 210 273 269 242 224 208 241 262 275 272 250 240 241 229 228 244 237 226 220 213 214 199 182